STARLINK-4664, 53777

Orbit data source: Space-Track

STARLINK-4664, 53777 is a payload satellite owned by SpaceX/Seattle (US) in LEO that was launched on Sun, 11 Sep 2022 UTC via an FALCON 9 launch vehicle from the Air Force Eastern Test Range (AFETR). Payload-class satellites include a variety of spacecraft equipped with specific instruments for various scientific and technological missions. These include communications satellites like Starlink; space stations such as the ISS; scientific satellites like the Hubble; Earth observation satellites from companies like Planet Labs, Umbra, and HawkEye 360; GPS; miniature CubeSats for education and research; and military/defense satellites.

Loading next visibility...
Identifier
53777, 2022-111E
Orbit
LEO
Country
Flag of USUS
Related business
Manufacturer
SpaceX/Seattle
Mission
Operational Commercial Communications
Bus & Motor
STARLINK, Unknown motor
Mass
305 kg wet, ~290 kg dry
Launch date (UTC)
2022-09-11 (4 years ago)
Launch vehicle
FALCON 9
Launch site
Air Force Eastern Test Range (AFETR)
Object type
Payload
Rocket body
Debris
Shape & HBR
Box + 1 Pan, 10.1 m
Radar Cross Section
13.562 m², Large (>1 m²)

Expand to show TLE details & history
Last TLE update: 14 hours ago

TLE from 14 hours ago
0 STARLINK-4664
1 53777U 22111E   26192.82146191 -.00000025  00000-0  16550-4 0  9997
2 53777  53.1606  76.7834 0001492 113.2086 246.9063 15.08835736212432
Epoch: 2026-07-11T19:42Z
TLE epoch observation values (Epoch: 2026-07-11T19:42:54.309Z)
Latitude
0.00003°
Longitude
-148.67204°
Altitude
541.053 km
Speed
7.593 km/s
True Right ascension
05h 07m 08s
True Declination
0° 00' 00"
Sunlit
Object was in daylight at epoch
Visualization orbit readout
Latitude
Unknown
Longitude
Unknown
Altitude
Unknown
Speed
Unknown
Apparent Right ascension
Unknown
Apparent Declination
Unknown
Sunlit
N/A
Visualization observer readout
Local Sidereal Time
21:44:23
Azimuth
Unknown
Elevation
Unknown
Doppler factor
Unknown
Orbital elements
Apogee altitude
541.043 km
Perigee altitude
538.978 km
Semi-major axis
6,918.147 km
Eccentricity
0.00015
Inclination
53.1606°
RAAN
76.7834°
Arg. of periapsis
113.2086°
True anomaly
246.89057°
Mean anomaly
246.9063°
Eccentric anomaly
246.89844°
Mean motion
3.77189 °/min
Orbital period
95.44 mins
BSTAR
0.00001655
Loading maneuver chart data...
Computing Atmospheric mass density...
Loading historical data...
Loading historical data...
Loading historical data...
Loading historical data...
Loading historical data...
Loading historical data...
Loading historical data...

Documentation

Showing up to 5 results
|